Location: Newark
(34.6283°N, 36.0776°E)
Time: 13:47:50
(UTC+00:00)

Tiros 1 despin weight - All Passes

Search period start: 20 September 2019 00:00
Search period end: 30 September 2019 00:00
Orbit: 594 x 642 km, 48.2° (Epoch: 20 September)

Date Brightness Start Highest point End Pass type
(mag) Time Alt. Az. Time Alt. Az. Time Alt. Az.
20 Sep - 09:00:43 10° SW 09:05:15 67° SE 09:09:44 10° ENE daylight
20 Sep - 10:43:14 10° W 10:47:05 27° NNW 10:50:54 10° NE daylight
20 Sep - 12:27:24 10° NW 12:29:50 14° N 12:32:14 10° NNE daylight
20 Sep - 14:09:30 10° NNW 14:12:44 19° NNE 14:15:58 10° ENE daylight
20 Sep - 15:50:30 10° NW 15:54:54 68° NE 15:59:17 10° ESE visible
20 Sep - 17:33:06 10° W 17:36:03 18° SW 17:39:00 10° S visible
21 Sep - 07:37:10 10° S 07:40:36 21° SE 07:44:00 10° E daylight
21 Sep - 09:17:19 10° WSW 09:21:51 62° NW 09:26:20 10° NE daylight
21 Sep - 11:00:51 10° WNW 11:04:04 19° NNW 11:07:17 10° NNE daylight
21 Sep - 12:44:34 10° NNW 12:47:01 14° N 12:49:26 10° NE daylight
21 Sep - 14:25:52 10° NW 14:29:43 28° NNE 14:33:32 10° E daylight
21 Sep - 16:07:08 10° WNW 16:11:29 59° SW 16:15:49 10° SE visible
22 Sep - 07:52:38 10° SSW 07:56:59 44° SE 08:01:18 10° ENE daylight
22 Sep - 09:34:25 10° W 09:38:36 35° NNW 09:42:45 10° NE daylight
22 Sep - 11:18:32 10° NW 11:21:11 15° N 11:23:49 10° NNE daylight
22 Sep - 13:01:15 10° NNW 13:04:09 17° NNE 13:07:03 10° NE daylight
22 Sep - 14:42:15 10° NW 14:46:32 46° NNE 14:50:47 10° ESE daylight
22 Sep - 16:24:10 10° WNW 16:27:55 27° SW 16:31:38 10° SSE visible
23 Sep - 06:30:13 10° SSE 06:32:27 13° SE 06:34:39 10° E daylight
23 Sep - 08:08:54 10° SW 08:13:30 90° N 08:18:03 10° NE daylight
23 Sep - 09:51:53 10° WNW 09:55:31 23° NNW 09:59:07 10° NNE daylight
23 Sep - 11:35:57 10° NNW 11:38:21 14° N 11:40:45 10° NNE daylight
23 Sep - 13:17:40 10° NNW 13:21:12 22° NNE 13:24:42 10° ENE daylight
23 Sep - 14:58:45 10° NW 15:03:12 90° E 15:07:36 10° SE daylight
23 Sep - 16:42:21 10° WSW 16:44:12 12° SW 16:46:03 10° SSW visible
24 Sep - 06:44:48 10° SSW 06:48:46 29° SE 06:52:42 10° ENE daylight
24 Sep - 08:25:44 10° WSW 08:30:10 47° NNW 08:34:34 10° NE daylight
24 Sep - 10:09:33 10° NW 10:12:34 17° NNW 10:15:33 10° NNE daylight
24 Sep - 11:52:53 10° NNW 11:55:32 15° N 11:58:08 10° NE daylight
24 Sep - 13:34:02 10° NW 13:38:07 34° NNE 13:42:09 10° E daylight
24 Sep - 15:15:32 10° WNW 15:19:43 42° SW 15:23:52 10° SSE daylight
25 Sep - 07:00:39 10° SW 07:05:12 60° SE 07:09:42 10° ENE daylight
25 Sep - 08:42:59 10° W 08:46:59 29° NNW 08:50:57 10° NE daylight
25 Sep - 10:27:09 10° NW 10:29:42 15° N 10:32:13 10° NNE daylight
25 Sep - 12:09:27 10° NNW 12:12:38 19° NNE 12:15:48 10° ENE daylight
25 Sep - 13:50:28 10° NW 13:54:52 61° NE 13:59:14 10° ESE daylight
25 Sep - 15:32:52 10° W 15:36:05 20° SW 15:39:17 10° S daylight
26 Sep - 05:37:20 10° S 05:40:35 19° SE 05:43:48 10° E daylight
26 Sep - 07:17:10 10° WSW 07:21:47 68° NW 07:26:20 10° NE daylight
26 Sep - 09:00:34 10° WNW 09:03:57 20° NNW 09:07:20 10° NNE daylight
26 Sep - 10:44:24 10° NNW 10:46:53 14° N 10:49:21 10° NE daylight
26 Sep - 12:25:50 10° NW 12:29:38 26° NNE 12:33:24 10° E daylight
26 Sep - 14:07:04 10° WNW 14:11:28 67° SW 14:15:50 10° SE daylight
27 Sep - 05:52:37 10° SSW 05:56:56 39° SE 06:01:13 10° ENE daylight
27 Sep - 07:34:12 10° W 07:38:31 38° NNW 07:42:47 10° NE daylight
27 Sep - 09:18:14 10° NW 09:21:03 16° N 09:23:50 10° NNE daylight
27 Sep - 11:01:09 10° NNW 11:04:02 16° NNE 11:06:54 10° NE daylight
27 Sep - 12:42:12 10° NW 12:46:30 43° NNE 12:50:42 10° ESE daylight
27 Sep - 14:24:00 10° WNW 14:27:55 31° SW 14:31:47 10° SSE daylight
28 Sep - 04:30:40 10° SSE 04:32:25 12° SE 04:34:10 10° ESE daylight
28 Sep - 06:08:47 10° SW 06:13:26 82° SE 06:18:02 10° NE daylight
28 Sep - 07:51:37 10° WNW 07:55:24 24° NNW 07:59:09 10° NNE daylight
28 Sep - 09:35:43 10° NW 09:38:13 14° N 09:40:42 10° NNE daylight
28 Sep - 11:17:37 10° NNW 11:21:06 21° NNE 11:24:33 10° ENE daylight
28 Sep - 12:58:42 10° NW 13:03:11 82° NE 13:07:36 10° SE daylight
28 Sep - 14:41:52 10° W 14:44:14 14° SW 14:46:34 10° SSW daylight
29 Sep - 04:44:51 10° S 04:48:42 26° SE 04:52:33 10° ENE daylight
29 Sep - 06:25:32 10° WSW 06:30:04 52° NNW 06:34:34 10° NE daylight
29 Sep - 08:09:15 10° WNW 08:12:25 18° NNW 08:15:34 10° NNE daylight
29 Sep - 09:52:44 10° NNW 09:55:24 15° N 09:58:01 10° NE daylight
29 Sep - 11:33:59 10° NW 11:38:03 32° NNE 11:42:02 10° E daylight
29 Sep - 13:15:25 10° WNW 13:19:43 48° SW 13:23:57 10° SSE daylight
